FORMOSAT-5

Last updated on Sat Oct 18 2025 00:02:33 GMT+0000 (Coordinated Universal Time)

1 42920U 17049A 25290.70903799 .00000353 00000+0 10036-3 0 9993 2 42920 98.2503 6.1268 0012249 102.9642 257.2922 14.50954998431518
UTC large
Height (km)
Speed (km/s)
/
Latitude / Longitude
Inclination (degrees)
Orbital Period (minutes)
Azimuth
Elevation
Range (km)
Doppler Factor

Next 0 passes for location: London (51.5072 / 0.1276)

Sorry there are no passes over London.